Regional Weather Roundup
Issued by NWS

Home | Current Version | Previous Version | Text Only | Print | Product List | Glossary Off
Versions: 1 2 3 4 5 6 7 8 9 10 11 12 13 14 15 16 17 18 19 20 21 22 23 24 25 26 27 28 29 30 31 32 33 34 35 36 37 38 39 40 41 42 43 44 45 46 47 48 49 50

000
ASUS43 KLMK 170802
RWRKY
KENTUCKY REGIONAL WEATHER ROUNDUP
NATIONAL WEATHER SERVICE LOUISVILLE KY
400 AM EDT WED SEP 17 2014

NOTE "FAIR" INDICATES FEW OR NO CLOUDS BELOW 12,000 FEET
WITH NO SIGNIFICANT WEATHER AND/OR OBSTRUCTIONS TO VISIBILITY.

KYZ001>023-026-027-061>063-070>075-170900-
WESTERN AND SOUTH CENTRAL KENTUCKY

CITY           SKY/WX    TMP DP  RH WIND       PRES   REMARKS
PADUCAH        CLEAR     49  47  93 CALM      30.07F FOG
HENDERSON      CLEAR     45  43  93 CALM      30.09S
OWENSBORO      CLEAR     49  48  96 CALM      30.08F
HOPKINSVILLE   CLEAR     52  52 100 N5        30.06F
BOWLING GREEN  PTCLDY    54  51  90 CALM      30.07F
GLASGOW        CLEAR     52  52 100 CALM      30.06F FOG
$$

KYZ024-025-028>034-038-045-046-053-170900-
NORTH CENTRAL KENTUCKY

CITY           SKY/WX    TMP DP  RH WIND       PRES   REMARKS
LOUISVILLE/SDF CLEAR     53  51  93 CALM      30.08F
LOUISVILLE/LOU CLEAR     52  49  89 CALM      30.09S
FORT KNOX      CLEAR     49  48  98 N2        30.06F FOG
$$

KYZ035>037-039>044-047>052-055>060-089>105-170900-
NORTHEAST KENTUCKY

CITY           SKY/WX    TMP DP  RH WIND       PRES   REMARKS
LEXINGTON      CLOUDY    55  51  86 NE6       30.08F
COVINGTON      CLEAR     50  47  89 CALM      30.08F FOG
FRANKFORT      FOG       47  47 100 CALM      30.07F VSB 3/4
$$

KYZ054-064>069-076>088-106>120-170900-
SOUTHEAST KENTUCKY

CITY           SKY/WX    TMP DP  RH WIND       PRES   REMARKS
JACKSON        CLOUDY    56  54  93 CALM      30.07S
LONDON         CLOUDY    59  54  83 N5        30.07S
SOMERSET       NOT AVBL
MIDDLESBORO    CLOUDY    56  56 100 CALM      30.06S FOG
MONTICELLO     CLOUDY    58  56  93 CALM      30.08S
$$




USA.gov is the U.S. government's official web portal to all federal, state and local government web resources and services.